Regional Weather Roundup
Issued by NWS

Home | Current Version | Previous Version | Graphics & Text | Print | Product List | Glossary On
Versions: 1 2 3 4 5 6 7 8 9 10 11 12 13 14 15 16 17 18 19 20 21 22 23 24 25 26 27 28 29 30 31 32 33 34 35 36 37 38 39 40 41 42 43 44 45 46 47 48 49 50
000
ASUS43 KMKX 050600
RWRWI

WISCONSIN REGIONAL WEATHER ROUNDUP
NATIONAL WEATHER SERVICE MILWAUKEE/SULLIVAN WI
100 AM CDT SUN JUL 05 2015

NOTE: "FAIR" INDICATES FEW OR NO CLOUDS BELOW 12,000 FEET WITH NO
SIGNIFICANT WEATHER AND/OR OBSTRUCTIONS TO VISIBILITY.

WIZ001-002-006>008-014>016-023>028-050700-
NORTHWEST WISCONSIN

CITY           SKY/WX    TMP DP  RH WIND       PRES   REMARKS
SUPERIOR ARPT  CLEAR     57  56  97 CALM      29.93F
ASHLAND        MOCLDY    56  56 100 CALM      29.93F FOG
6HR MIN TEMP:  55; 6HR MAX TEMP:  66;

HAYWARD        CLOUDY    65  61  87 S5        29.96S FOG
6HR MIN TEMP:  63; 6HR MAX TEMP:  80;

SIREN          CLEAR     70  65  83 S5        29.95S HAZE
CUMBERLAND     CLEAR     63  61  94 S5        29.98R FOG
RICE LAKE      CLEAR     67  63  87 SE3       29.99R FOG
CHETEK         CLEAR     65  64  99 CALM      29.98R FOG
LADYSMITH      CLEAR     66  64  91 CALM      30.00S FOG
EAU CLAIRE     NOT AVBL
MENOMONIE      CLEAR     67  64  88 S3        29.98R FOG
NEW RICHMOND   CLEAR     68  61  78 S6        29.97S
OSCEOLA        CLEAR     67  67  99 SE5       29.98S
$$

WIZ003>005-009-010-017-018-050700-
NORTH CENTRAL WISCONSIN

CITY           SKY/WX    TMP DP  RH WIND       PRES   REMARKS
MANITOWISH WTR FOG       58  58 100 CALM      30.00R VSB 1/2
ARBOR VITAE    CLEAR     62  60  93 CALM      30.01R FOG
WOODRUFF       CLEAR     62  60  93 CALM      30.01R FOG
RHINELANDER    MOCLDY    62  60  93 CALM      30.03R FOG
6HR MIN TEMP:  62; 6HR MAX TEMP:  78;

EAGLE RIVER    CLEAR     63  63 100 CALM      30.01S FOG
LAND O LAKES   CLEAR     58  58  97 CALM      30.02S FOG
PHILLIPS       CLEAR     65  63  93 CALM      29.99S
TOMAHAWK         N/A     59  58  96 CALM      30.02R FOG
MEDFORD        CLEAR     67  64  90 SW3       30.02R
MERRILL        CLEAR     60  60 100 CALM      30.02R FOG
$$

WIZ029-030-035-036-043>047-050700-
CENTRAL WISCONSIN

CITY           SKY/WX    TMP DP  RH WIND       PRES   REMARKS
WAUSAU         CLEAR     68  64  87 S6        30.00R FOG
6HR MIN TEMP:  67; 6HR MAX TEMP:  80;

MOSINEE        CLEAR     64  63  94 S6        30.02R
MARSHFIELD     PTCLDY    65  61  87 CALM      30.02R FOG
6HR MIN TEMP:  64; 6HR MAX TEMP:  80;

STEVENS POINT  CLEAR     65  60  85 CALM      30.02R
WAUPACA        CLEAR     66  65  96 CALM      30.01R FOG
WAUTOMA        NOT AVBL
WISC RAPIDS    CLEAR     65  61  87 CALM      30.02R
6HR MIN TEMP:  64; 6HR MAX TEMP:  80;

CAMP DOUGLAS   CLEAR     61  61 100 CALM      30.00S FOG
$$

WIZ011>013-019>022-031-037>040-048>050-050700-
NORTHEAST WISCONSIN

CITY           SKY/WX    TMP DP  RH WIND       PRES   REMARKS
ANTIGO         MOCLDY    64  64  97 S7        30.03R FOG
SHAWANO        MOCLDY    69  63  81 CALM      30.01R
OCONTO         CLOUDY    62  62 100 CALM      30.01R
STURGEON BAY   CLEAR     61  55  82 SE8       30.05R
6HR MIN TEMP:  61; 6HR MAX TEMP:  68;

GREEN BAY      CLEAR     64  61  90 CALM      30.02R FOG
6HR MIN TEMP:  64; 6HR MAX TEMP:  76;

MANITOWOC      NOT AVBL
APPLETON       CLEAR     68  61  77 SW3       30.02R
CLINTONVILLE   CLEAR     66  63  88 CALM      30.01R
OSHKOSH        CLEAR     65  61  87 S6        30.01R
6HR MIN TEMP:  64; 6HR MAX TEMP:  78;

$$

WIZ032>034-041-042-053>061-050700-
SOUTHWEST WISCONSIN

CITY           SKY/WX    TMP DP  RH WIND       PRES   REMARKS
LA CROSSE      CLEAR     69  65  86 S3        29.99R
6HR MIN TEMP:  69; 6HR MAX TEMP:  81;

SPARTA         CLEAR     61  59  92 CALM      30.01R
VIROQUA        CLEAR     66  60  80 S5        30.02R
BOSCOBEL       FOG       61  59  93 CALM      30.02R VSB 1/4
6HR MIN TEMP:  61; 6HR MAX TEMP:  80;

PRAIRIE DU CHI CLEAR     63  60  89 CALM      30.01R
PLATTEVILLE    CLEAR     65  62  89 S6        30.03R
$$

WIZ056-057-062-063-064-067-068-050700-
SOUTH CENTRAL WISCONSIN

CITY           SKY/WX    TMP DP  RH WIND       PRES   REMARKS
REEDSBURG      CLEAR     65  61  86 CALM      30.01R
BARABOO/DELLS  CLEAR     64  59  83 CALM      30.02R
LONE ROCK      NOT AVBL
MINERAL POINT  CLEAR     66  61  82 S5        30.04R
MADISON        CLEAR     64  60  87 CALM      30.02R
6HR MIN TEMP:  64; 6HR MAX TEMP:  79;

MIDDLETON      CLEAR     69  61  77 SW5       30.02S
WATERTOWN      CLEAR     65  65 100 CALM      30.02R
MONROE         CLEAR     64  61  88 S7        30.04R
JANESVILLE     CLEAR     64  61  88 CALM      30.02S FOG
$$

WIZ051-052-058>065-066-070>072-050700-
SOUTHEAST WISCONSIN

CITY           SKY/WX    TMP DP  RH WIND       PRES   REMARKS
MILWAUKEE      PTCLDY    67  55  65 S5        30.03R
6HR MIN TEMP:  65; 6HR MAX TEMP:  76;

WAUKESHA       CLEAR     64  59  82 S5        30.04R
MILWAUKEE/TIMM CLEAR     66  54  63 S5        30.03S
RACINE         CLEAR     64  54  69 S3        30.04S
6HR MIN TEMP:  63; 6HR MAX TEMP:  73;

BURLINGTON     CLEAR     58  57  96 CALM      30.03S FOG
KENOSHA        CLEAR     65  55  70 S6        30.03S
6HR MIN TEMP:  64; 6HR MAX TEMP:  76;

FOND DU LAC    CLEAR     65  61  87 S5        30.02R
6HR MIN TEMP:  64; 6HR MAX TEMP:  79;

SHEBOYGAN      CLEAR     61  57  87 SW3       30.03R
6HR MIN TEMP:  61; 6HR MAX TEMP:  74;

WEST BEND      CLEAR     61  59  94 CALM      30.03R
JUNEAU         CLEAR     65  61  86 CALM      30.03S
$$

LSZ147-162-050700-
LAKE SUPERIOR

STATION/POSITION TIME  TEMP    WIND        PRES    WAVE
                       AIR SEA DIR/SP/G            HT/PER
                 (UTC) (F)     (DEG/KT/KT) (MB)    (FT/S)
W MID LAKE BUOY  0450   45 39   30/  8/ 10 1014.2S   0
DEVILS ISLAND    0500   56      40/  6/  7 1013.8F
SAXON HARBOR     0540   59        CALM     1013.2F
$$

LMZ867-665-643>646-050700-
LAKE MICHIGAN

STATION/POSITION TIME  TEMP    WIND        PRES    WAVE
                       AIR SEA DIR/SP/G            HT/PER
                 (UTC) (F)     (DEG/KT/KT) (MB)    (FT/S)
CHAMBERS ISLAND  0500   64     140/  3/  7 1016.3R
S GREEN BAY BUOY 0530   67 69  170/  6/  8 1017.4R
N MID LAKE BUOY  0450   55 49  200/  6/  6 1016.4R   0
NORTHPORT PIER   0500   62     180/  3/  7 1016.3R
SISTER BAY       0544   62     150/  9/ 12   N/A
ALGOMA LAKESHORE 0511          160/  7/  8   N/A
KEWAUNEE LAKESHO 0500   61     130/  2/  4 1015.6R
SHEBOYGAN LAKESH 0500   61     180/  9/ 10 1016.4F
PORT WASHINGTON  0540   63      CALM  /  3 1017.3R
ATWATER BUOY     0500   65 61  160/  8/ 10 1017.6F
MILWAUKEE LAKESH 0500   68     140/  4/  6   N/A
KENOSHA   LAKESH 0500   68     200/  5/  6 1016.6S
$$

TC  - TEMPERATURE IN CELSIUS
VSB - VISIBILITY IN STATUTE MILES
WCI - WIND CHILL INDEX
HX  - HEAT INDEX



USA.gov is the U.S. government's official web portal to all federal, state and local government web resources and services.